| time (UTC) | temp C | wind direction | speed KPH | gust KPH | rain 1hr cm | rain 24hr cm | rain mn cm | humidity % | barometer mb |
| 20260505210148 | 24 | 16 | 8.0 | 16.1 | 0.00 | 0.00 | 0.00 | 46 | 1015.3 |
| 20260505204643 | 23 | 21 | 8.0 | 16.1 | 0.00 | 0.00 | 0.00 | 46 | 1015.4 |
| 20260505203038 | 23 | 21 | 8.0 | 17.7 | 0.00 | 0.00 | 0.00 | 47 | 1015.4 |
| 20260505201533 | 23 | 10 | 8.0 | 16.1 | 0.00 | 0.00 | 0.00 | 47 | 1015.5 |
| 20260505200038 | 23 | 39 | 6.4 | 16.1 | 0.00 | 0.00 | 0.00 | 47 | 1015.8 |
| 20260505191608 | 23 | 27 | 6.4 | 14.5 | 0.00 | 0.00 | 0.00 | 48 | 1015.9 |
| 20260505190029 | 23 | 50 | 8.0 | 14.5 | 0.00 | 0.00 | 0.00 | 48 | 1016.0 |
| 20260505183030 | 22 | 26 | 6.4 | 14.5 | 0.00 | 0.00 | 0.00 | 51 | 1016.1 |
| 20260505181535 | 21 | 6 | 6.4 | 14.5 | 0.00 | 0.00 | 0.00 | 52 | 1016.0 |
| 20260505180030 | 21 | 36 | 6.4 | 12.9 | 0.00 | 0.00 | 0.00 | 54 | 1016.0 |
| 20260505174535 | 20 | 16 | 6.4 | 11.3 | 0.00 | 0.00 | 0.00 | 55 | 1016.1 |
| 20260505173035 | 20 | 28 | 6.4 | 11.3 | 0.00 | 0.00 | 0.00 | 58 | 1016.0 |
| 20260505171531 | 19 | 48 | 6.4 | 14.5 | 0.00 | 0.00 | 0.00 | 59 | 1015.9 |
| 20260505164540 | 18 | 45 | 4.8 | 11.3 | 0.00 | 0.00 | 0.00 | 62 | 1015.9 |
| 20260505163030 | 17 | 29 | 4.8 | 11.3 | 0.00 | 0.00 | 0.00 | 64 | 1015.9 |
| 20260505161532 | 17 | 47 | 4.8 | 11.3 | 0.00 | 0.00 | 0.00 | 67 | 1015.9 |
| 20260505153031 | 13 | 58 | 4.8 | 9.7 | 0.00 | 0.00 | 0.00 | 83 | 1015.5 |
| 20260505123036 | 10 | 89 | 4.8 | 8.0 | 0.00 | 0.00 | 0.00 | 85 | 1014.0 |
| 20260505121529 | 10 | 90 | 4.8 | 8.0 | 0.00 | 0.00 | 0.00 | 85 | 1013.9 |
| 20260505120035 | 10 | 102 | 4.8 | 9.7 | 0.00 | 0.00 | 0.00 | 85 | 1013.9 |
| 20260505114608 | 10 | 115 | 4.8 | 8.0 | 0.00 | 0.00 | 0.00 | 84 | 1013.9 |
| 20260505113039 | 10 | 113 | 4.8 | 6.4 | 0.00 | 0.00 | 0.00 | 83 | 1013.7 |
| 20260505113032 | 10 | 100 | 3.2 | 6.4 | 0.00 | 0.00 | 0.00 | 83 | 1013.7 |
| 20260505110107 | 10 | 90 | 3.2 | 6.4 | 0.00 | 0.00 | 0.00 | 82 | 1013.6 |
| 20260505101531 | 11 | 98 | 4.8 | 8.0 | 0.00 | 0.00 | 0.00 | 79 | 1013.3 |
| 20260505100043 | 11 | 105 | 4.8 | 6.4 | 0.00 | 0.00 | 0.00 | 78 | 1013.2 |
| 20260505093036 | 12 | 147 | 3.2 | 6.4 | 0.00 | 0.00 | 0.00 | 75 | 1013.1 |
| 20260505091529 | 13 | 122 | 4.8 | 8.0 | 0.00 | 0.00 | 0.00 | 75 | 1013.1 |
| 20260505090035 | 12 | 134 | 6.4 | 8.0 | 0.00 | 0.00 | 0.00 | 75 | 1013.0 |
| 20260505074530 | 14 | 33 | 3.2 | 6.4 | 0.00 | 0.00 | 0.00 | 68 | 1012.9 |
| 20260505073031 | 14 | 298 | 1.6 | 9.7 | 0.00 | 0.00 | 0.00 | 67 | 1012.8 |
| 20260505071535 | 15 | 190 | 3.2 | 4.8 | 0.00 | 0.00 | 0.00 | 64 | 1012.6 |
| 20260505064533 | 15 | 299 | 3.2 | 8.0 | 0.00 | 0.00 | 0.00 | 63 | 1012.6 |
| 20260505063033 | 15 | 244 | 3.2 | 6.4 | 0.00 | 0.00 | 0.00 | 60 | 1012.6 |
| 20260505061605 | 15 | 256 | 4.8 | 8.0 | 0.00 | 0.00 | 0.00 | 59 | 1012.5 |
| 20260505060036 | 15 | 216 | 4.8 | 8.0 | 0.00 | 0.00 | 0.00 | 59 | 1012.5 |
| 20260505054530 | 15 | 195 | 4.8 | 8.0 | 0.00 | 0.00 | 0.00 | 57 | 1012.4 |
| 20260505053037 | 16 | 212 | 3.2 | 4.8 | 0.00 | 0.00 | 0.00 | 55 | 1012.3 |
| 20260505051532 | 16 | 289 | 4.8 | 8.0 | 0.00 | 0.00 | 0.00 | 53 | 1012.3 |
| 20260505041531 | 18 | 274 | 4.8 | 11.3 | 0.00 | 0.00 | 0.00 | 49 | 1011.8 |
| 20260505040042 | 18 | 264 | 3.2 | 9.7 | 0.00 | 0.00 | 0.00 | 48 | 1011.6 |
| 20260505034535 | 18 | 302 | 3.2 | 11.3 | 0.00 | 0.00 | 0.00 | 47 | 1011.4 |
| 20260505033036 | 20 | 326 | 6.4 | 12.9 | 0.00 | 0.00 | 0.00 | 45 | 1011.2 |
| 20260505031533 | 20 | 316 | 8.0 | 16.1 | 0.00 | 0.00 | 0.00 | 43 | 1011.0 |
| 20260505030108 | 21 | 312 | 11.3 | 20.9 | 0.00 | 0.00 | 0.00 | 41 | 1010.8 |
| 20260505024533 | 22 | 309 | 11.3 | 25.7 | 0.00 | 0.00 | 0.00 | 39 | 1010.6 |
| 20260505021535 | 23 | 309 | 12.9 | 29.0 | 0.00 | 0.00 | 0.00 | 35 | 1010.4 |
| 20260505020029 | 24 | 312 | 14.5 | 29.0 | 0.00 | 0.00 | 0.00 | 34 | 1010.4 |
| 20260505014607 | 25 | 310 | 16.1 | 32.2 | 0.00 | 0.00 | 0.00 | 31 | 1010.3 |
| 20260505013030 | 26 | 314 | 14.5 | 24.1 | 0.00 | 0.00 | 0.00 | 31 | 1010.3 |
| 20260505011609 | 26 | 316 | 14.5 | 29.0 | 0.00 | 0.00 | 0.00 | 30 | 1010.2 |
| 20260505004642 | 27 | 318 | 14.5 | 30.6 | 0.00 | 0.00 | 0.00 | 29 | 1010.2 |
| 20260505003111 | 27 | 346 | 12.9 | 24.1 | 0.00 | 0.00 | 0.00 | 36 | 1010.2 |
| 20260505001534 | 28 | 20 | 12.9 | 24.1 | 0.00 | 0.00 | 0.00 | 38 | 1010.3 |
| 20260505000041 | 28 | 26 | 12.9 | 22.5 | 0.00 | 0.00 | 0.00 | 37 | 1010.3 |
| 20260504234537 | 28 | 25 | 11.3 | 22.5 | 0.00 | 0.00 | 0.00 | 36 | 1010.3 |
| 20260504231535 | 29 | 24 | 11.3 | 20.9 | 0.00 | 0.00 | 0.00 | 35 | 1010.5 |
| 20260504230035 | 29 | 24 | 12.9 | 24.1 | 0.00 | 0.00 | 0.00 | 34 | 1010.7 |
| 20260504224531 | 29 | 16 | 11.3 | 24.1 | 0.00 | 0.00 | 0.00 | 32 | 1010.8 |
| 20260504220032 | 28 | 15 | 8.0 | 16.1 | 0.00 | 0.00 | 0.00 | 29 | 1011.2 |
| 20260504214535 | 28 | 1 | 8.0 | 16.1 | 0.00 | 0.00 | 0.00 | 29 | 1011.4 |
| 20260504213136 | 28 | 19 | 6.4 | 17.7 | 0.00 | 0.00 | 0.00 | 29 | 1011.5 |
| 20260504211546 | 27 | 26 | 6.4 | 16.1 | 0.00 | 0.00 | 0.00 | 29 | 1011.7 |
| 20260504211538 | 27 | 30 | 8.0 | 17.7 | 0.00 | 0.00 | 0.00 | 30 | 1011.8 |